Location: Ciserano
(45.5833°N, 9.6000°E)
Time: 16:56:56
(UTC+00:00)

EXPRESS MD2 - Visible Passes

Search period start: 16 April 2021 00:00
Search period end: 26 April 2021 00:00
Orbit: 260 x 3971 km, 49.9° (Epoch: 16 April)

Date Brightness Start Highest point End Pass type
(mag) Time Alt. Az. Time Alt. Az. Time Alt. Az.
16 Apr 8.0 01:43:40 10° W 01:50:45 17° WSW 01:50:45 17° WSW visible
16 Apr 6.1 18:39:29 10° W 18:47:20 71° N 19:04:23 10° E visible
16 Apr 6.5 20:54:50 10° WNW 21:06:05 88° SSW 21:18:41 31° ESE visible
16 Apr 7.1 23:10:53 10° WNW 23:24:52 50° SW 23:28:28 47° SSW visible
17 Apr 8.1 01:31:25 10° W 01:38:15 17° WSW 01:38:15 17° WSW visible
17 Apr 6.1 18:27:18 10° W 18:34:54 70° N 18:51:31 10° E visible
17 Apr 6.5 20:42:34 10° WNW 20:53:30 88° SSW 21:06:16 29° ESE visible
17 Apr 7.1 22:58:33 10° WNW 23:12:11 49° SW 23:16:03 46° SSW visible
18 Apr 8.1 01:19:09 10° W 01:25:50 16° WSW 01:25:50 16° WSW visible
18 Apr 6.4 20:30:15 10° WNW 20:40:53 88° SSW 20:53:54 28° ESE visible
18 Apr 7.1 22:46:10 10° WNW 22:59:27 48° SW 23:03:42 44° SSW visible
19 Apr 8.1 01:06:52 10° W 01:13:30 16° WSW 01:13:30 16° WSW visible
19 Apr 6.4 20:17:55 10° WNW 20:28:15 87° SSW 20:41:38 26° ESE visible
19 Apr 7.1 22:33:46 10° WNW 22:46:41 48° SW 22:51:25 42° SSW visible
20 Apr 8.1 00:54:34 10° W 01:01:13 16° WSW 01:01:13 16° WSW visible
20 Apr 6.4 20:05:32 10° WNW 20:15:34 87° SSW 20:29:23 24° ESE visible
20 Apr 7.1 22:21:19 10° WNW 22:33:55 47° SW 22:39:11 41° SSW visible
21 Apr 8.1 00:42:15 10° W 00:48:59 15° WSW 00:48:59 15° WSW visible
21 Apr 6.3 19:53:07 10° WNW 20:02:51 86° SSW 20:17:11 22° ESE visible
21 Apr 7.1 22:08:51 10° WNW 22:21:06 46° SW 22:26:59 38° S visible
22 Apr 8.1 00:29:55 10° W 00:36:48 15° WSW 00:36:48 15° WSW visible
22 Apr 6.3 19:40:39 10° WNW 19:50:07 86° SSW 20:05:01 20° ESE visible
22 Apr 7.1 21:56:20 10° WNW 22:08:15 45° SW 22:14:50 36° S visible
23 Apr 8.1 00:17:35 10° W 00:24:38 14° WSW 00:24:38 14° WSW visible
23 Apr 6.3 19:28:10 10° WNW 19:37:21 85° SSW 19:52:54 18° ESE visible
23 Apr 7.1 21:43:47 10° WNW 21:55:22 44° SW 22:02:43 34° S visible
24 Apr 8.2 00:05:15 10° W 00:12:23 14° WSW 00:12:31 14° WSW visible
24 Apr 6.2 19:15:38 10° WNW 19:24:33 85° SSW 19:40:49 15° ESE visible
24 Apr 7.1 21:31:12 10° WNW 21:42:28 43° SW 21:50:37 31° S visible
24 Apr 8.2 23:52:56 10° W 23:59:28 13° WSW 00:00:26 13° WSW visible
25 Apr 6.2 19:03:04 10° WNW 19:11:42 84° SSW 19:28:45 13° ESE visible
25 Apr 7.1 21:18:35 10° WNW 21:29:32 42° SW 21:38:34 28° S visible
25 Apr 8.2 23:40:37 10° W 23:46:30 13° WSW 23:48:23 12° WSW visible
